Погода в Казарке

Россия / Пензенская область     53°35′48″N   45°47′22″E
темп.,
°C
ветер,
м/с
пор.,
м/с
влажн.,
%
обл.,
%
осадки,
мм/ч
давл.,
гПа
погр.,
м
24 июля, сб
сб2400:00+16зюз23679 0.0 100762
03:00+12з24805 0.0 100863
06:00+15зсз24805 0.0 1008162
09:00+19сз34585 0.1 1009978
12:00+21ссз454730 0.2 10091884
15:00+20ссз355131 0.2 10111140
18:00+20с475366 0.0 1012855
21:00+13ссв227933 0.0 101515
25 июля, вс
вс2500:00+11св11895 0.0 101710
03:00+10ссв11905 0.0 101810
06:00+13с11795 0.0 102090
09:00+19с12571 0.0 10201075
12:00+22сз234159 0.0 10202300
15:00+20с3457100 0.0 1021678
18:00+17св127572 0.2 102259
21:00+15в1172100 0.2 102326
26 июля, пн
пн2600:00+15ссз1168100 0.0 102413
03:00+15в1161100 0.0 102410
06:00+15зюз0064100 0.0 102516
09:00+18з0155100 0.0 1025191
12:00+22юз123684 0.0 10252301
15:00+19ссз255788 0.0 1024266
18:00+20сз12574 0.0 102363
21:00+14юз11657 0.0 102410
27 июля, вт
вт2700:00+15зюз225760 0.0 102326
03:00+15з246055 0.0 102386
06:00+15зсз24705 0.0 1023120
09:00+21сз34476 0.0 1023642
12:00+24сз35394 0.0 10222089
15:00+23сз354999 0.0 1020941
18:00+22з246514 0.0 1020207
21:00+16сз117971 0.1 102020
28 июля, ср
ср2800:00+15сз117697 0.0 102013
03:00+15з227690 0.0 102015
06:00+17зсз14768 0.0 1020133
09:00+22сз34545 0.0 1019677
12:00+25сз35430 0.0 10181939
15:00+25зсз354785 0.0 10171729
18:00+23зюз246153 0.0 1016151
21:00+18юз24665 0.0 101660